owner,sensor,date,latitude,longitude,relative_humidity,qcFlag 
COMPS,ioos:station:USF.COMPS:SHP:1,2019-08-01T00:54:00,30.0600,-84.2910,62.65,11111222 
COMPS,ioos:station:USF.COMPS:SHP:1,2019-08-01T01:54:00,30.0600,-84.2910,63.87,11111222 
COMPS,ioos:station:USF.COMPS:SHP:1,2019-08-01T02:54:00,30.0600,-84.2910,70.32,11111222 
COMPS,ioos:station:USF.COMPS:SHP:1,2019-08-01T03:54:00,30.0600,-84.2910,95.95,11111222 
COMPS,ioos:station:USF.COMPS:SHP:1,2019-08-01T04:54:00,30.0600,-84.2910,30.99,11111222 
COMPS,ioos:station:USF.COMPS:SHP:1,2019-08-01T05:54:00,30.0600,-84.2910,0.82,11111222 
COMPS,ioos:station:USF.COMPS:SHP:1,2019-08-01T06:54:00,30.0600,-84.2910,0.7,11111222 
COMPS,ioos:station:USF.COMPS:SHP:1,2019-08-01T07:54:00,30.0600,-84.2910,0.75,11111222 
COMPS,ioos:station:USF.COMPS:SHP:1,2019-08-01T08:54:00,30.0600,-84.2910,72.5,11111222 
COMPS,ioos:station:USF.COMPS:SHP:1,2019-08-01T09:54:00,30.0600,-84.2910,0.67,11111222 
COMPS,ioos:station:USF.COMPS:SHP:1,2019-08-01T10:54:00,30.0600,-84.2910,0.8,11111222 
COMPS,ioos:station:USF.COMPS:SHP:1,2019-08-01T11:54:00,30.0600,-84.2910,0.68,11111222 
COMPS,ioos:station:USF.COMPS:SHP:1,2019-08-01T12:54:00,30.0600,-84.2910,66.93,11111222 
COMPS,ioos:station:USF.COMPS:SHP:1,2019-08-01T13:54:00,30.0600,-84.2910,61.19,11111222 
COMPS,ioos:station:USF.COMPS:SHP:1,2019-08-01T14:54:00,30.0600,-84.2910,60.52,11111222 
COMPS,ioos:station:USF.COMPS:SHP:1,2019-08-01T15:54:00,30.0600,-84.2910,60.01,11111222 
COMPS,ioos:station:USF.COMPS:SHP:1,2019-08-01T16:54:00,30.0600,-84.2910,58.94,11111222 
COMPS,ioos:station:USF.COMPS:SHP:1,2019-08-01T17:54:00,30.0600,-84.2910,58.93,11111222 
COMPS,ioos:station:USF.COMPS:SHP:1,2019-08-01T18:54:00,30.0600,-84.2910,61.1,11111222 
COMPS,ioos:station:USF.COMPS:SHP:1,2019-08-01T19:54:00,30.0600,-84.2910,63.62,11111222 
COMPS,ioos:station:USF.COMPS:SHP:1,2019-08-01T20:54:00,30.0600,-84.2910,55.37,11111222 
COMPS,ioos:station:USF.COMPS:SHP:1,2019-08-01T21:54:00,30.0600,-84.2910,61.65,11111222 
COMPS,ioos:station:USF.COMPS:SHP:1,2019-08-01T22:54:00,30.0600,-84.2910,65.67,11111222 
COMPS,ioos:station:USF.COMPS:SHP:1,2019-08-01T23:54:00,30.0600,-84.2910,62.72,11111222 
COMPS,ioos:station:USF.COMPS:SHP:1,2019-08-02T00:54:00,30.0600,-84.2910,67.24,11111222 
COMPS,ioos:station:USF.COMPS:SHP:1,2019-08-02T01:54:00,30.0600,-84.2910,67.17,11111222 
COMPS,ioos:station:USF.COMPS:SHP:1,2019-08-02T02:54:00,30.0600,-84.2910,65.05,11111222 
COMPS,ioos:station:USF.COMPS:SHP:1,2019-08-02T03:54:00,30.0600,-84.2910,69.02,11111222 
COMPS,ioos:station:USF.COMPS:SHP:1,2019-08-02T04:54:00,30.0600,-84.2910,67.19,11111222 
COMPS,ioos:station:USF.COMPS:SHP:1,2019-08-02T05:54:00,30.0600,-84.2910,65.44,11111222 
COMPS,ioos:station:USF.COMPS:SHP:1,2019-08-02T06:54:00,30.0600,-84.2910,0.73,11111222 
COMPS,ioos:station:USF.COMPS:SHP:1,2019-08-02T07:54:00,30.0600,-84.2910,0.67,11111222 
COMPS,ioos:station:USF.COMPS:SHP:1,2019-08-02T08:54:00,30.0600,-84.2910,0.77,11111222 
COMPS,ioos:station:USF.COMPS:SHP:1,2019-08-02T09:54:00,30.0600,-84.2910,0.67,11111222 
COMPS,ioos:station:USF.COMPS:SHP:1,2019-08-02T10:54:00,30.0600,-84.2910,0.67,11111222 
COMPS,ioos:station:USF.COMPS:SHP:1,2019-08-02T11:54:00,30.0600,-84.2910,0.73,11111222 
COMPS,ioos:station:USF.COMPS:SHP:1,2019-08-02T12:54:00,30.0600,-84.2910,0.67,11111222 
COMPS,ioos:station:USF.COMPS:SHP:1,2019-08-02T13:54:00,30.0600,-84.2910,0.83,11111222 
COMPS,ioos:station:USF.COMPS:SHP:1,2019-08-02T14:54:00,30.0600,-84.2910,73.15,11111222 
COMPS,ioos:station:USF.COMPS:SHP:1,2019-08-02T15:54:00,30.0600,-84.2910,65.52,11111222 
COMPS,ioos:station:USF.COMPS:SHP:1,2019-08-02T16:54:00,30.0600,-84.2910,63.46,11111222 
COMPS,ioos:station:USF.COMPS:SHP:1,2019-08-02T17:54:00,30.0600,-84.2910,58.04,11111222 
COMPS,ioos:station:USF.COMPS:SHP:1,2019-08-02T18:54:00,30.0600,-84.2910,58.11,11111222 
COMPS,ioos:station:USF.COMPS:SHP:1,2019-08-02T19:54:00,30.0600,-84.2910,60.67,11111222 
COMPS,ioos:station:USF.COMPS:SHP:1,2019-08-02T20:54:00,30.0600,-84.2910,59.48,11111222 
COMPS,ioos:station:USF.COMPS:SHP:1,2019-08-02T21:54:00,30.0600,-84.2910,61.51,11111222 
COMPS,ioos:station:USF.COMPS:SHP:1,2019-08-02T22:54:00,30.0600,-84.2910,57.69,11111222 
COMPS,ioos:station:USF.COMPS:SHP:1,2019-08-02T23:54:00,30.0600,-84.2910,58.76,11111222 
COMPS,ioos:station:USF.COMPS:SHP:1,2019-08-03T00:54:00,30.0600,-84.2910,66.68,11111222 
COMPS,ioos:station:USF.COMPS:SHP:1,2019-08-03T01:54:00,30.0600,-84.2910,83.89,11111222 
COMPS,ioos:station:USF.COMPS:SHP:1,2019-08-03T02:54:00,30.0600,-84.2910,0.71,11111222 
COMPS,ioos:station:USF.COMPS:SHP:1,2019-08-03T03:54:00,30.0600,-84.2910,0.68,11111222 
COMPS,ioos:station:USF.COMPS:SHP:1,2019-08-03T04:54:00,30.0600,-84.2910,0.82,11111222 
COMPS,ioos:station:USF.COMPS:SHP:1,2019-08-03T05:54:00,30.0600,-84.2910,59.13,11111222 
COMPS,ioos:station:USF.COMPS:SHP:1,2019-08-03T06:54:00,30.0600,-84.2910,0.71,11111222 
COMPS,ioos:station:USF.COMPS:SHP:1,2019-08-03T07:54:00,30.0600,-84.2910,0.68,11111222 
COMPS,ioos:station:USF.COMPS:SHP:1,2019-08-03T08:54:00,30.0600,-84.2910,0.67,11111222 
COMPS,ioos:station:USF.COMPS:SHP:1,2019-08-03T09:54:00,30.0600,-84.2910,0.79,11111222 
COMPS,ioos:station:USF.COMPS:SHP:1,2019-08-03T10:54:00,30.0600,-84.2910,0.67,11111222 
COMPS,ioos:station:USF.COMPS:SHP:1,2019-08-03T11:54:00,30.0600,-84.2910,0.73,11111222 
COMPS,ioos:station:USF.COMPS:SHP:1,2019-08-03T12:54:00,30.0600,-84.2910,0.69,11111222 
COMPS,ioos:station:USF.COMPS:SHP:1,2019-08-03T13:54:00,30.0600,-84.2910,72.32,11111222 
COMPS,ioos:station:USF.COMPS:SHP:1,2019-08-03T14:54:00,30.0600,-84.2910,66.16,11111222 
COMPS,ioos:station:USF.COMPS:SHP:1,2019-08-03T15:54:00,30.0600,-84.2910,65.34,11111222 
COMPS,ioos:station:USF.COMPS:SHP:1,2019-08-03T16:54:00,30.0600,-84.2910,65.33,11111222 
COMPS,ioos:station:USF.COMPS:SHP:1,2019-08-03T17:54:00,30.0600,-84.2910,63.73,11111222 
COMPS,ioos:station:USF.COMPS:SHP:1,2019-08-03T18:54:00,30.0600,-84.2910,61.51,11111222 
COMPS,ioos:station:USF.COMPS:SHP:1,2019-08-03T19:54:00,30.0600,-84.2910,64.05,11111222 
COMPS,ioos:station:USF.COMPS:SHP:1,2019-08-03T20:54:00,30.0600,-84.2910,55.11,11111222 
COMPS,ioos:station:USF.COMPS:SHP:1,2019-08-03T21:54:00,30.0600,-84.2910,53.18,11111222 
COMPS,ioos:station:USF.COMPS:SHP:1,2019-08-03T22:54:00,30.0600,-84.2910,56.79,11111222 
COMPS,ioos:station:USF.COMPS:SHP:1,2019-08-03T23:54:00,30.0600,-84.2910,60.55,11111222 
COMPS,ioos:station:USF.COMPS:SHP:1,2019-08-04T00:54:00,30.0600,-84.2910,68.6,11111222 
COMPS,ioos:station:USF.COMPS:SHP:1,2019-08-04T01:54:00,30.0600,-84.2910,94.43,11111222 
COMPS,ioos:station:USF.COMPS:SHP:1,2019-08-04T02:54:00,30.0600,-84.2910,0.77,11111222 
COMPS,ioos:station:USF.COMPS:SHP:1,2019-08-04T03:54:00,30.0600,-84.2910,0.67,11111222 
COMPS,ioos:station:USF.COMPS:SHP:1,2019-08-04T04:54:00,30.0600,-84.2910,0.67,11111222 
COMPS,ioos:station:USF.COMPS:SHP:1,2019-08-04T05:54:00,30.0600,-84.2910,0.75,11111222 
COMPS,ioos:station:USF.COMPS:SHP:1,2019-08-04T06:54:00,30.0600,-84.2910,0.67,11111222 
COMPS,ioos:station:USF.COMPS:SHP:1,2019-08-04T07:54:00,30.0600,-84.2910,0.76,11111222 
COMPS,ioos:station:USF.COMPS:SHP:1,2019-08-04T08:54:00,30.0600,-84.2910,0.67,11111222 
COMPS,ioos:station:USF.COMPS:SHP:1,2019-08-04T09:54:00,30.0600,-84.2910,0.67,11111222 
COMPS,ioos:station:USF.COMPS:SHP:1,2019-08-04T10:54:00,30.0600,-84.2910,0.73,11111222 
COMPS,ioos:station:USF.COMPS:SHP:1,2019-08-04T11:54:00,30.0600,-84.2910,0.67,11111222 
COMPS,ioos:station:USF.COMPS:SHP:1,2019-08-04T12:54:00,30.0600,-84.2910,0.78,11111222 
COMPS,ioos:station:USF.COMPS:SHP:1,2019-08-04T13:54:00,30.0600,-84.2910,64.58,11111222 
COMPS,ioos:station:USF.COMPS:SHP:1,2019-08-04T14:54:00,30.0600,-84.2910,60.41,11111222 
COMPS,ioos:station:USF.COMPS:SHP:1,2019-08-04T15:54:00,30.0600,-84.2910,55.27,11111222 
COMPS,ioos:station:USF.COMPS:SHP:1,2019-08-04T16:54:00,30.0600,-84.2910,53.16,11111222 
COMPS,ioos:station:USF.COMPS:SHP:1,2019-08-04T17:54:00,30.0600,-84.2910,57.21,11111222 
COMPS,ioos:station:USF.COMPS:SHP:1,2019-08-04T18:54:00,30.0600,-84.2910,61.19,11111222 
COMPS,ioos:station:USF.COMPS:SHP:1,2019-08-04T19:54:00,30.0600,-84.2910,62.07,11111222 
COMPS,ioos:station:USF.COMPS:SHP:1,2019-08-04T20:54:00,30.0600,-84.2910,62.68,11111222 
COMPS,ioos:station:USF.COMPS:SHP:1,2019-08-04T21:54:00,30.0600,-84.2910,57.77,11111222 
COMPS,ioos:station:USF.COMPS:SHP:1,2019-08-04T22:54:00,30.0600,-84.2910,61.23,11111222 
COMPS,ioos:station:USF.COMPS:SHP:1,2019-08-04T23:54:00,30.0600,-84.2910,65.62,11111222 
COMPS,ioos:station:USF.COMPS:SHP:1,2019-08-05T00:54:00,30.0600,-84.2910,63.86,11111222 
COMPS,ioos:station:USF.COMPS:SHP:1,2019-08-05T01:54:00,30.0600,-84.2910,64.32,11111222 
COMPS,ioos:station:USF.COMPS:SHP:1,2019-08-05T02:54:00,30.0600,-84.2910,64.71,11111222 
COMPS,ioos:station:USF.COMPS:SHP:1,2019-08-05T03:54:00,30.0600,-84.2910,66.58,11111222 
COMPS,ioos:station:USF.COMPS:SHP:1,2019-08-05T04:54:00,30.0600,-84.2910,69.64,11111222 
COMPS,ioos:station:USF.COMPS:SHP:1,2019-08-05T05:54:00,30.0600,-84.2910,44.76,11111222 
COMPS,ioos:station:USF.COMPS:SHP:1,2019-08-05T06:54:00,30.0600,-84.2910,0.68,11111222 
COMPS,ioos:station:USF.COMPS:SHP:1,2019-08-05T07:54:00,30.0600,-84.2910,0.75,11111222 
COMPS,ioos:station:USF.COMPS:SHP:1,2019-08-05T08:54:00,30.0600,-84.2910,0.67,11111222 
COMPS,ioos:station:USF.COMPS:SHP:1,2019-08-05T09:54:00,30.0600,-84.2910,0.77,11111222 
COMPS,ioos:station:USF.COMPS:SHP:1,2019-08-05T10:54:00,30.0600,-84.2910,0.67,11111222 
COMPS,ioos:station:USF.COMPS:SHP:1,2019-08-05T11:54:00,30.0600,-84.2910,0.67,11111222 
COMPS,ioos:station:USF.COMPS:SHP:1,2019-08-05T12:54:00,30.0600,-84.2910,75.58,11111222 
COMPS,ioos:station:USF.COMPS:SHP:1,2019-08-05T13:54:00,30.0600,-84.2910,67.63,11111222 
COMPS,ioos:station:USF.COMPS:SHP:1,2019-08-05T14:54:00,30.0600,-84.2910,62.7,11111222 
COMPS,ioos:station:USF.COMPS:SHP:1,2019-08-05T15:54:00,30.0600,-84.2910,59.84,11111222 
COMPS,ioos:station:USF.COMPS:SHP:1,2019-08-05T16:54:00,30.0600,-84.2910,58.36,11111222 
COMPS,ioos:station:USF.COMPS:SHP:1,2019-08-05T17:54:00,30.0600,-84.2910,57.59,11111222 
COMPS,ioos:station:USF.COMPS:SHP:1,2019-08-05T18:54:00,30.0600,-84.2910,59.27,11111222 
COMPS,ioos:station:USF.COMPS:SHP:1,2019-08-05T19:54:00,30.0600,-84.2910,60.05,11111222 
COMPS,ioos:station:USF.COMPS:SHP:1,2019-08-05T20:54:00,30.0600,-84.2910,57.87,11111222 
COMPS,ioos:station:USF.COMPS:SHP:1,2019-08-05T21:54:00,30.0600,-84.2910,50.31,11111222 
COMPS,ioos:station:USF.COMPS:SHP:1,2019-08-05T22:54:00,30.0600,-84.2910,54.0,11111222 
COMPS,ioos:station:USF.COMPS:SHP:1,2019-08-05T23:54:00,30.0600,-84.2910,58.09,11111222 
COMPS,ioos:station:USF.COMPS:SHP:1,2019-08-06T00:54:00,30.0600,-84.2910,63.11,11111222 
COMPS,ioos:station:USF.COMPS:SHP:1,2019-08-06T01:54:00,30.0600,-84.2910,64.85,11111222 
COMPS,ioos:station:USF.COMPS:SHP:1,2019-08-06T02:54:00,30.0600,-84.2910,66.96,11111222 
COMPS,ioos:station:USF.COMPS:SHP:1,2019-08-06T03:54:00,30.0600,-84.2910,70.11,11111222 
COMPS,ioos:station:USF.COMPS:SHP:1,2019-08-06T04:54:00,30.0600,-84.2910,74.88,11111222 
COMPS,ioos:station:USF.COMPS:SHP:1,2019-08-06T05:54:00,30.0600,-84.2910,0.83,11111222 
COMPS,ioos:station:USF.COMPS:SHP:1,2019-08-06T06:54:00,30.0600,-84.2910,0.69,11111222 
COMPS,ioos:station:USF.COMPS:SHP:1,2019-08-06T07:54:00,30.0600,-84.2910,6.22,11111222 
COMPS,ioos:station:USF.COMPS:SHP:1,2019-08-06T08:54:00,30.0600,-84.2910,0.69,11111222 
COMPS,ioos:station:USF.COMPS:SHP:1,2019-08-06T09:54:00,30.0600,-84.2910,91.28,11111222 
COMPS,ioos:station:USF.COMPS:SHP:1,2019-08-06T10:54:00,30.0600,-84.2910,0.81,11111222 
COMPS,ioos:station:USF.COMPS:SHP:1,2019-08-06T11:54:00,30.0600,-84.2910,0.67,11111222 
COMPS,ioos:station:USF.COMPS:SHP:1,2019-08-06T12:54:00,30.0600,-84.2910,73.08,11111222 
COMPS,ioos:station:USF.COMPS:SHP:1,2019-08-06T13:54:00,30.0600,-84.2910,66.11,11111222 
COMPS,ioos:station:USF.COMPS:SHP:1,2019-08-06T14:54:00,30.0600,-84.2910,64.16,11111222 
COMPS,ioos:station:USF.COMPS:SHP:1,2019-08-06T15:54:00,30.0600,-84.2910,61.52,11111222 
COMPS,ioos:station:USF.COMPS:SHP:1,2019-08-06T16:54:00,30.0600,-84.2910,58.17,11111222 
COMPS,ioos:station:USF.COMPS:SHP:1,2019-08-06T17:54:00,30.0600,-84.2910,66.87,11111222 
COMPS,ioos:station:USF.COMPS:SHP:1,2019-08-06T18:54:00,30.0600,-84.2910,0.7,11111222 
COMPS,ioos:station:USF.COMPS:SHP:1,2019-08-06T19:54:00,30.0600,-84.2910,98.15,11111222 
COMPS,ioos:station:USF.COMPS:SHP:1,2019-08-06T20:54:00,30.0600,-84.2910,67.35,11111222 
COMPS,ioos:station:USF.COMPS:SHP:1,2019-08-06T21:54:00,30.0600,-84.2910,62.74,11111222 
COMPS,ioos:station:USF.COMPS:SHP:1,2019-08-06T22:54:00,30.0600,-84.2910,63.55,11111222 
COMPS,ioos:station:USF.COMPS:SHP:1,2019-08-06T23:54:00,30.0600,-84.2910,84.79,11111222 
COMPS,ioos:station:USF.COMPS:SHP:1,2019-08-07T00:54:00,30.0600,-84.2910,70.55,11111222 
COMPS,ioos:station:USF.COMPS:SHP:1,2019-08-07T01:54:00,30.0600,-84.2910,3.6,11111222 
COMPS,ioos:station:USF.COMPS:SHP:1,2019-08-07T02:54:00,30.0600,-84.2910,63.0,11111222 
COMPS,ioos:station:USF.COMPS:SHP:1,2019-08-07T03:54:00,30.0600,-84.2910,0.79,11111222 
COMPS,ioos:station:USF.COMPS:SHP:1,2019-08-07T04:54:00,30.0600,-84.2910,0.71,11111222 
COMPS,ioos:station:USF.COMPS:SHP:1,2019-08-07T05:54:00,30.0600,-84.2910,0.71,11111222 
COMPS,ioos:station:USF.COMPS:SHP:1,2019-08-07T06:54:00,30.0600,-84.2910,0.79,11111222 
COMPS,ioos:station:USF.COMPS:SHP:1,2019-08-07T07:54:00,30.0600,-84.2910,0.7,11111222 
COMPS,ioos:station:USF.COMPS:SHP:1,2019-08-07T08:54:00,30.0600,-84.2910,0.8,11111222 
COMPS,ioos:station:USF.COMPS:SHP:1,2019-08-07T09:54:00,30.0600,-84.2910,0.71,11111222 
COMPS,ioos:station:USF.COMPS:SHP:1,2019-08-07T10:54:00,30.0600,-84.2910,0.71,11111222 
COMPS,ioos:station:USF.COMPS:SHP:1,2019-08-07T11:54:00,30.0600,-84.2910,0.79,11111222 
COMPS,ioos:station:USF.COMPS:SHP:1,2019-08-07T12:54:00,30.0600,-84.2910,77.79,11111222 
COMPS,ioos:station:USF.COMPS:SHP:1,2019-08-07T13:54:00,30.0600,-84.2910,71.59,11111222 
COMPS,ioos:station:USF.COMPS:SHP:1,2019-08-07T14:54:00,30.0600,-84.2910,65.15,11111222 
COMPS,ioos:station:USF.COMPS:SHP:1,2019-08-07T15:54:00,30.0600,-84.2910,59.01,11111222 
COMPS,ioos:station:USF.COMPS:SHP:1,2019-08-07T16:54:00,30.0600,-84.2910,57.69,11111222 
COMPS,ioos:station:USF.COMPS:SHP:1,2019-08-07T17:54:00,30.0600,-84.2910,64.82,11111222 
COMPS,ioos:station:USF.COMPS:SHP:1,2019-08-07T18:54:00,30.0600,-84.2910,64.54,11111222 
COMPS,ioos:station:USF.COMPS:SHP:1,2019-08-07T19:54:00,30.0600,-84.2910,66.97,11111222 
COMPS,ioos:station:USF.COMPS:SHP:1,2019-08-07T20:54:00,30.0600,-84.2910,69.45,11111222 
COMPS,ioos:station:USF.COMPS:SHP:1,2019-08-07T21:54:00,30.0600,-84.2910,0.73,11111222 
COMPS,ioos:station:USF.COMPS:SHP:1,2019-08-07T22:54:00,30.0600,-84.2910,83.79,11111222 
COMPS,ioos:station:USF.COMPS:SHP:1,2019-08-07T23:54:00,30.0600,-84.2910,67.66,11111222 
COMPS,ioos:station:USF.COMPS:SHP:1,2019-08-08T00:54:00,30.0600,-84.2910,0.67,11111222 
COMPS,ioos:station:USF.COMPS:SHP:1,2019-08-08T01:54:00,30.0600,-84.2910,0.7,11111222 
COMPS,ioos:station:USF.COMPS:SHP:1,2019-08-08T02:54:00,30.0600,-84.2910,0.74,11111222 
COMPS,ioos:station:USF.COMPS:SHP:1,2019-08-08T05:54:00,30.0600,-84.2910,0.7,11111222 
COMPS,ioos:station:USF.COMPS:SHP:1,2019-08-08T06:54:00,30.0600,-84.2910,0.74,11111222 
COMPS,ioos:station:USF.COMPS:SHP:1,2019-08-08T07:54:00,30.0600,-84.2910,0.74,11111222 
COMPS,ioos:station:USF.COMPS:SHP:1,2019-08-08T08:54:00,30.0600,-84.2910,0.7,11111222 
COMPS,ioos:station:USF.COMPS:SHP:1,2019-08-08T09:54:00,30.0600,-84.2910,0.84,11111222 
COMPS,ioos:station:USF.COMPS:SHP:1,2019-08-08T10:54:00,30.0600,-84.2910,0.71,11111222 
COMPS,ioos:station:USF.COMPS:SHP:1,2019-08-08T11:54:00,30.0600,-84.2910,0.76,11111222 
COMPS,ioos:station:USF.COMPS:SHP:1,2019-08-08T12:54:00,30.0600,-84.2910,0.74,11111222 
COMPS,ioos:station:USF.COMPS:SHP:1,2019-08-08T13:54:00,30.0600,-84.2910,14.53,11111222 
COMPS,ioos:station:USF.COMPS:SHP:1,2019-08-08T14:54:00,30.0600,-84.2910,66.88,11111222 
COMPS,ioos:station:USF.COMPS:SHP:1,2019-08-08T15:54:00,30.0600,-84.2910,59.86,11111222 
COMPS,ioos:station:USF.COMPS:SHP:1,2019-08-08T16:54:00,30.0600,-84.2910,58.26,11111222 
COMPS,ioos:station:USF.COMPS:SHP:1,2019-08-08T17:54:00,30.0600,-84.2910,58.76,11111222 
COMPS,ioos:station:USF.COMPS:SHP:1,2019-08-08T18:54:00,30.0600,-84.2910,73.52,11111222 
COMPS,ioos:station:USF.COMPS:SHP:1,2019-08-08T19:54:00,30.0600,-84.2910,64.24,11111222 
COMPS,ioos:station:USF.COMPS:SHP:1,2019-08-08T20:54:00,30.0600,-84.2910,66.1,11111222 
COMPS,ioos:station:USF.COMPS:SHP:1,2019-08-08T21:54:00,30.0600,-84.2910,66.91,11111222 
COMPS,ioos:station:USF.COMPS:SHP:1,2019-08-08T22:54:00,30.0600,-84.2910,66.92,11111222 
COMPS,ioos:station:USF.COMPS:SHP:1,2019-08-08T23:54:00,30.0600,-84.2910,75.72,11111222 
COMPS,ioos:station:USF.COMPS:SHP:1,2019-08-09T00:54:00,30.0600,-84.2910,11.9,11111222 
COMPS,ioos:station:USF.COMPS:SHP:1,2019-08-09T01:54:00,30.0600,-84.2910,28.23,11111222 
COMPS,ioos:station:USF.COMPS:SHP:1,2019-08-09T02:54:00,30.0600,-84.2910,0.82,11111222 
COMPS,ioos:station:USF.COMPS:SHP:1,2019-08-09T03:54:00,30.0600,-84.2910,0.72,11111222 
COMPS,ioos:station:USF.COMPS:SHP:1,2019-08-09T04:54:00,30.0600,-84.2910,0.72,11111222 
COMPS,ioos:station:USF.COMPS:SHP:1,2019-08-09T05:54:00,30.0600,-84.2910,0.81,11111222 
COMPS,ioos:station:USF.COMPS:SHP:1,2019-08-09T06:54:00,30.0600,-84.2910,0.7,11111222 
COMPS,ioos:station:USF.COMPS:SHP:1,2019-08-09T07:54:00,30.0600,-84.2910,0.8,11111222 
COMPS,ioos:station:USF.COMPS:SHP:1,2019-08-09T08:54:00,30.0600,-84.2910,0.69,11111222 
COMPS,ioos:station:USF.COMPS:SHP:1,2019-08-09T09:54:00,30.0600,-84.2910,0.69,11111222 
COMPS,ioos:station:USF.COMPS:SHP:1,2019-08-09T10:54:00,30.0600,-84.2910,0.77,11111222 
COMPS,ioos:station:USF.COMPS:SHP:1,2019-08-09T11:54:00,30.0600,-84.2910,0.68,11111222 
COMPS,ioos:station:USF.COMPS:SHP:1,2019-08-09T12:54:00,30.0600,-84.2910,0.8,11111222 
COMPS,ioos:station:USF.COMPS:SHP:1,2019-08-09T13:54:00,30.0600,-84.2910,0.76,11111222 
COMPS,ioos:station:USF.COMPS:SHP:1,2019-08-09T14:54:00,30.0600,-84.2910,78.29,11111222 
COMPS,ioos:station:USF.COMPS:SHP:1,2019-08-09T15:54:00,30.0600,-84.2910,64.02,11111222 
COMPS,ioos:station:USF.COMPS:SHP:1,2019-08-09T16:54:00,30.0600,-84.2910,69.15,11111222 
COMPS,ioos:station:USF.COMPS:SHP:1,2019-08-09T17:54:00,30.0600,-84.2910,62.45,11111222 
COMPS,ioos:station:USF.COMPS:SHP:1,2019-08-09T18:54:00,30.0600,-84.2910,67.16,11111222 
COMPS,ioos:station:USF.COMPS:SHP:1,2019-08-09T19:54:00,30.0600,-84.2910,68.71,11111222 
COMPS,ioos:station:USF.COMPS:SHP:1,2019-08-09T20:54:00,30.0600,-84.2910,33.85,11111222 
COMPS,ioos:station:USF.COMPS:SHP:1,2019-08-09T21:54:00,30.0600,-84.2910,64.43,11111222 
COMPS,ioos:station:USF.COMPS:SHP:1,2019-08-09T22:54:00,30.0600,-84.2910,65.73,11111222 
COMPS,ioos:station:USF.COMPS:SHP:1,2019-08-09T23:54:00,30.0600,-84.2910,67.6,11111222 
COMPS,ioos:station:USF.COMPS:SHP:1,2019-08-10T00:54:00,30.0600,-84.2910,66.68,11111222 
COMPS,ioos:station:USF.COMPS:SHP:1,2019-08-10T01:54:00,30.0600,-84.2910,79.26,11111222 
COMPS,ioos:station:USF.COMPS:SHP:1,2019-08-10T03:54:00,30.0600,-84.2910,0.88,11111222 
COMPS,ioos:station:USF.COMPS:SHP:1,2019-08-10T04:54:00,30.0600,-84.2910,0.71,11111222 
COMPS,ioos:station:USF.COMPS:SHP:1,2019-08-10T05:54:00,30.0600,-84.2910,0.73,11111222 
COMPS,ioos:station:USF.COMPS:SHP:1,2019-08-10T06:54:00,30.0600,-84.2910,0.75,11111222 
COMPS,ioos:station:USF.COMPS:SHP:1,2019-08-10T07:54:00,30.0600,-84.2910,0.71,11111222 
COMPS,ioos:station:USF.COMPS:SHP:1,2019-08-10T08:54:00,30.0600,-84.2910,0.85,11111222 
COMPS,ioos:station:USF.COMPS:SHP:1,2019-08-10T09:54:00,30.0600,-84.2910,0.71,11111222 
COMPS,ioos:station:USF.COMPS:SHP:1,2019-08-10T10:54:00,30.0600,-84.2910,0.74,11111222 
COMPS,ioos:station:USF.COMPS:SHP:1,2019-08-10T11:54:00,30.0600,-84.2910,0.74,11111222 
COMPS,ioos:station:USF.COMPS:SHP:1,2019-08-10T12:54:00,30.0600,-84.2910,0.71,11111222 
COMPS,ioos:station:USF.COMPS:SHP:1,2019-08-10T13:54:00,30.0600,-84.2910,0.92,11111222 
COMPS,ioos:station:USF.COMPS:SHP:1,2019-08-10T14:54:00,30.0600,-84.2910,91.34,11111222 
COMPS,ioos:station:USF.COMPS:SHP:1,2019-08-10T15:54:00,30.0600,-84.2910,68.33,11111222 
COMPS,ioos:station:USF.COMPS:SHP:1,2019-08-10T16:54:00,30.0600,-84.2910,70.31,11111222 
COMPS,ioos:station:USF.COMPS:SHP:1,2019-08-10T17:54:00,30.0600,-84.2910,71.57,11111222 
COMPS,ioos:station:USF.COMPS:SHP:1,2019-08-10T18:54:00,30.0600,-84.2910,63.85,11111222 
COMPS,ioos:station:USF.COMPS:SHP:1,2019-08-10T19:54:00,30.0600,-84.2910,67.15,11111222 
COMPS,ioos:station:USF.COMPS:SHP:1,2019-08-10T20:54:00,30.0600,-84.2910,83.41,11111222 
COMPS,ioos:station:USF.COMPS:SHP:1,2019-08-10T21:54:00,30.0600,-84.2910,73.24,11111222 
COMPS,ioos:station:USF.COMPS:SHP:1,2019-08-10T22:54:00,30.0600,-84.2910,0.81,11111222 
COMPS,ioos:station:USF.COMPS:SHP:1,2019-08-10T23:54:00,30.0600,-84.2910,0.82,11111222 
COMPS,ioos:station:USF.COMPS:SHP:1,2019-08-11T00:54:00,30.0600,-84.2910,0.69,11111222 
COMPS,ioos:station:USF.COMPS:SHP:1,2019-08-11T01:54:00,30.0600,-84.2910,0.76,11111222 
COMPS,ioos:station:USF.COMPS:SHP:1,2019-08-11T02:54:00,30.0600,-84.2910,0.69,11111222 
COMPS,ioos:station:USF.COMPS:SHP:1,2019-08-11T03:54:00,30.0600,-84.2910,0.7,11111222 
COMPS,ioos:station:USF.COMPS:SHP:1,2019-08-11T04:54:00,30.0600,-84.2910,0.81,11111222 
COMPS,ioos:station:USF.COMPS:SHP:1,2019-08-11T05:54:00,30.0600,-84.2910,0.72,11111222 
COMPS,ioos:station:USF.COMPS:SHP:1,2019-08-11T06:54:00,30.0600,-84.2910,0.78,11111222 
COMPS,ioos:station:USF.COMPS:SHP:1,2019-08-11T07:54:00,30.0600,-84.2910,0.71,11111222 
COMPS,ioos:station:USF.COMPS:SHP:1,2019-08-11T08:54:00,30.0600,-84.2910,0.72,11111222 
COMPS,ioos:station:USF.COMPS:SHP:1,2019-08-11T09:54:00,30.0600,-84.2910,0.79,11111222 
COMPS,ioos:station:USF.COMPS:SHP:1,2019-08-11T10:54:00,30.0600,-84.2910,0.69,11111222 
COMPS,ioos:station:USF.COMPS:SHP:1,2019-08-11T11:54:00,30.0600,-84.2910,0.77,11111222 
COMPS,ioos:station:USF.COMPS:SHP:1,2019-08-11T12:54:00,30.0600,-84.2910,0.7,11111222 
COMPS,ioos:station:USF.COMPS:SHP:1,2019-08-11T13:54:00,30.0600,-84.2910,3.49,11111222 
COMPS,ioos:station:USF.COMPS:SHP:1,2019-08-11T14:54:00,30.0600,-84.2910,70.47,11111222 
COMPS,ioos:station:USF.COMPS:SHP:1,2019-08-11T15:54:00,30.0600,-84.2910,63.54,11111222 
COMPS,ioos:station:USF.COMPS:SHP:1,2019-08-11T16:54:00,30.0600,-84.2910,60.15,11111222 
COMPS,ioos:station:USF.COMPS:SHP:1,2019-08-11T17:54:00,30.0600,-84.2910,61.21,11111222 
COMPS,ioos:station:USF.COMPS:SHP:1,2019-08-11T18:54:00,30.0600,-84.2910,61.57,11111222 
COMPS,ioos:station:USF.COMPS:SHP:1,2019-08-11T19:54:00,30.0600,-84.2910,61.31,11111222 
COMPS,ioos:station:USF.COMPS:SHP:1,2019-08-11T20:54:00,30.0600,-84.2910,64.37,11111222 
COMPS,ioos:station:USF.COMPS:SHP:1,2019-08-11T21:54:00,30.0600,-84.2910,61.67,11111222 
COMPS,ioos:station:USF.COMPS:SHP:1,2019-08-11T22:54:00,30.0600,-84.2910,65.18,11111222 
COMPS,ioos:station:USF.COMPS:SHP:1,2019-08-12T05:54:00,30.0600,-84.2910,0.72,11111222 
COMPS,ioos:station:USF.COMPS:SHP:1,2019-08-12T08:54:00,30.0600,-84.2910,0.77,11111222 
COMPS,ioos:station:USF.COMPS:SHP:1,2019-08-12T11:54:00,30.0600,-84.2910,0.8,11111222 
COMPS,ioos:station:USF.COMPS:SHP:1,2019-08-12T12:54:00,30.0600,-84.2910,0.71,11111222 
COMPS,ioos:station:USF.COMPS:SHP:1,2019-08-12T13:54:00,30.0600,-84.2910,71.46,11111222 
COMPS,ioos:station:USF.COMPS:SHP:1,2019-08-12T14:54:00,30.0600,-84.2910,61.05,11111222 
COMPS,ioos:station:USF.COMPS:SHP:1,2019-08-12T15:54:00,30.0600,-84.2910,66.89,11111222 
COMPS,ioos:station:USF.COMPS:SHP:1,2019-08-12T16:54:00,30.0600,-84.2910,63.09,11111222 
COMPS,ioos:station:USF.COMPS:SHP:1,2019-08-12T17:54:00,30.0600,-84.2910,66.8,11111222 
COMPS,ioos:station:USF.COMPS:SHP:1,2019-08-12T18:54:00,30.0600,-84.2910,67.44,11111222 
COMPS,ioos:station:USF.COMPS:SHP:1,2019-08-12T19:54:00,30.0600,-84.2910,69.32,11111222 
COMPS,ioos:station:USF.COMPS:SHP:1,2019-08-12T20:54:00,30.0600,-84.2910,65.67,11111222 
COMPS,ioos:station:USF.COMPS:SHP:1,2019-08-12T21:54:00,30.0600,-84.2910,69.49,11111222 